Regional Weather Roundup
Issued by NWS Grand Forks, ND

Home | Current Version | Previous Version | Graphics & Text | Print | Product List | Glossary On
Versions: 1 2 3 4 5 6 7 8 9 10 11 12 13 14 15 16 17 18 19 20 21 22 23 24 25 26 27 28 29 30 31 32 33 34 35 36 37 38 39 40 41 42 43 44 45 46 47 48 49 50
000
ASUS43 KFGF 281531
RWRFGF
PRAIRIE TO PINES  WEATHER ROUNDUP
NATIONAL WEATHER SERVICE EASTERN NORTH DAKOTA/GRAND FORKS ND
1000 AM CDT WED SEP 28 2016

 **SATELLITE DATA USED TO AUGMENT SKY COVER AT AUTOMATED STATIONS**
 *****  WEATHER ACROSS EASTERN NORTH DAKOTA  *****

CITY           SKY/WX    TMP DP  RH WIND       PRES   REMARKS
GRAND FORKS    CLOUDY    50  44  80 NE3       30.29R
GRAND FRKS AFB SUNNY     50  44  80 NE2       30.29R
GRAND FRKS NWS   N/A     50 N/A N/A NE1         N/A
DEVILS LAKE    CLOUDY    48  45  89 CALM      30.29R
FARGO          CLOUDY    50  45  83 N8        30.27R
WAHPETON ARPT  CLOUDY    46  43  87 NE6       30.28R
$$

 ***** WEATHER ACROSS CENTRAL AND WESTERN NORTH DAKOTA  *****

CITY           SKY/WX    TMP DP  RH WIND       PRES   REMARKS
BISMARCK       SUNNY     48  42  80 E5        30.27R
MINOT          SUNNY     53  43  68 CALM      30.25R
JAMESTOWN      CLOUDY    48  44  86 N6        30.28R
MINOT AFB      SUNNY     50  42  73 E2        30.25R
GARRISON         N/A     53  44  71 S3        30.25R
WILLISTON      SUNNY     53  47  79 N9        30.25R
DICKINSON      SUNNY     55  45  68 S3        30.22R
HETTINGER      SUNNY     56  45  66 SE5       30.25R
$$

 *****  OTHER AIRPORT OBSERVATIONS IN OUR AREA  *****

CITY           SKY/WX    TMP DP  RH WIND       PRES   REMARKS
WALHALLA       FAIR      50  46  87 CALM      30.31R
GRAFTON AIRPOR FAIR      52  46  82 CALM      30.32R
VALLEY CITY AR PTSUNNY   50  46  87 NE7       30.30R
CANDO          FOG       45  45 100 CALM      30.32R VSB 1/2
CAVALIER APRT  FAIR      50  45  81 CALM      30.31R
GWINNER        FAIR      52  45  76 N10       30.28R
SHEYENNE NWR     N/A     47  43  87 NE7       29.95S
ROLLA          FAIR      54  48  82 CALM      30.30R
 ***** THE ABOVE OBSERVATIONS ARE NON NWS ARE NOT QUALITY
       CONTROLLED AND MAY MIS-REPORT RAIN FOR SNOW...
$$

  *****  WEATHER ACROSS NORTHERN MINNESOTA  *****

CITY           SKY/WX    TMP DP  RH WIND       PRES   REMARKS
FLAG ISLAND    CLOUDY    48  46  93 NW9       30.27R
WARROAD        CLOUDY    50  46  87 NW7       30.29R
ROSEAU         PTSUNNY   54  48  82 NE5       30.28R
HALLOCK        SUNNY     52  48  87 CALM      30.29R
THF RVR FALLS  MOSUNNY   54  46  76 N6        30.29R
BAUDETTE       CLOUDY    50  48  93 NE5       30.28R
WASKISH        CLOUDY    52  50  93 NE3       30.26R
CROOKSTON      CLOUDY    52  48  87 NW3       30.30R
STEPHEN NDAWN    N/A     48  46  93 NW1         N/A
GREENBUSH NDAW   N/A     48  48 100 NW2         N/A
$$
  *****  WEATHER ACROSS CENTRAL AND WEST MINNESOTA  *****

CITY           SKY/WX    TMP DP  RH WIND       PRES   REMARKS
FOSSTON        CLOUDY    46  46 100 NE3       30.28R FOG
BEMIDJI        CLOUDY    51  48  90 NE6       30.25R
PARK RAPIDS    CLOUDY    54  45  71 NE9       30.24R
ELBOW LAKE     CLOUDY    50  46  87 N6        30.25R
WADENA         MOSUNNY   52  46  82 N6        30.22R
DETROIT LAKES  CLOUDY    50  46  87 NW8       30.27R
MOORHEAD       CLOUDY    48  46  93 NE6       30.28R
FERGUS FALLS   CLOUDY    52  48  87 N5        30.28R
MORRIS MN      CLOUDY    52  46  82 N7        30.23R
STAPLES        CLOUDY    52  46  82 N9        30.23R
$$
  *****  WEATHER ELSEWHERE ACROSS MINNESOTA  *****

CITY           SKY/WX    TMP DP  RH WIND       PRES   REMARKS
DULUTH         CLOUDY    55  48  77 N10G18    30.17R
INTRNTL FALLS  CLOUDY    53  48  83 N6        30.25R
ELY            CLOUDY    52  46  82 NE6       30.20R
CLOQUET        PTSUNNY   55  46  71 N12G17    30.17R
WHEATON        CLOUDY    48  46  93 N5        30.27R
BRAINERD       CLOUDY    53  48  83 N13       30.21R
HIBBING        CLOUDY    52  46  80 NE9       30.20R
ALEXANDRIA     MOSUNNY   53  48  83 N12       30.22R
SAINT CLOUD    CLOUDY    53  49  86 NW10      30.17R
MINNEAPOLIS    PTSUNNY   56  48  74 N13G24    30.13R
$$

  *****  WEATHER ACROSS SOUTH DAKOTA  *****

CITY           SKY/WX    TMP DP  RH WIND       PRES   REMARKS
SIOUX FALLS    MOSUNNY   51  44  77 N15       30.21R
BROOKINGS      CLOUDY    46  43  89 N10       30.22R
WATERTOWN      MOSUNNY   51  44  77 MISG      30.23R
HURON          PTSUNNY   52  44  74 N6        30.25R
SISSETON         N/A     46  43  89 N8        30.25R
ABERDEEN       SUNNY     50  42  74 NE7       30.28R
MITCHELL       CLOUDY    50  44  80 N7        30.25R
PIERRE         SUNNY     51  41  68 E7        30.24R
MOBRIDGE       SUNNY     54  43  66 E6        30.24R
RAPID CITY     SUNNY     65  46  50 SE3       30.24R
$$

  *****  SOME WEATHER IN NEARBY STATES *****

CITY           SKY/WX    TMP DP  RH WIND       PRES   REMARKS
GLASGOW MT     SUNNY     53  44  71 VRB7      30.29R
GREAT FALLS MT SUNNY     45  38  76 W3        30.32S
CHEYENNE WY    SUNNY     60  36  40 CALM      30.38R
SCOTTSBLUFF NE SUNNY     56  43  61 NW8       30.30R
OMAHA NE       MOSUNNY   53  44  71 N13       30.16R
DES MOINES IA  CLOUDY    55  45  68 N13G18    30.08R
DAVENPORT IA   CLOUDY    54  46  74 N13       29.97R
CHICAGO IL     PTSUNNY   56  46  69 N13       29.88R
EAU CLAIRE WI  CLOUDY    56  52  86 N13       30.05R
LA CROSSE WI   CLOUDY    57  52  83 N12       30.01R
$$

  *****  SOME NATIONAL WEATHER *****

CITY           SKY/WX    TMP DP  RH WIND       PRES   REMARKS
LA GUARDIA NY  CLOUDY    70  59  68 NE20      30.10S
RALEIGH NC     PTSUNNY   79  70  74 SW8       29.97S
ATLANTA GA     SUNNY     75  58  55 NW8       29.98R
NEW ORLEANS LA PTSUNNY   85  62  46 N7        30.02R
OKLAHOMA CITY  MOSUNNY   72  52  49 NW8       30.04R
ALBUQUERQUE NM CLOUDY    58  38  47 W6        30.31R
SALT LAKE CITY SUNNY     61  49  64 SE5       30.19R
LOS ANGELES CA MOSUNNY   74  60  61 NE5       29.92R
BOISE ID       SUNNY     60  40  47 CALM      30.05R
SEATTLE WA     MOCLDY    53  48  83 NE10      30.12S
$$

*** WEATHER ACROSS MANITOBA...SASKATCHEWAN AND ONTARIO ***
                ***ONTARIO***

CITY           SKY/WX    TMP DP  RH WIND       PRES   REMARKS
GERALDTON      DRIZZLE   52  48  87 NE12      30.20R
THUNDER BAY    CLOUDY    55  50  82 NE5       30.17R
SIOUX LOOKOUT  CLOUDY    50  48  93 N5        30.27
TORONTO        PTSUNNY   66  50  55 E13       30.01R
BIG TROUT LK   CLOUDY    52  50  93 W7        30.22R
PICKLE LAKE    PTSUNNY   50  48  93 CALM      30.27R
DRYDEN         CLOUDY    52  50  93 NE3       30.27R
KENORA         PTSUNNY   52  48  87 N6        30.28R
$$
                *** MANITOBA***

CITY           SKY/WX    TMP DP  RH WIND       PRES   REMARKS
BRANDON        MOSUNNY   45  45 100 VRB2      30.29R
DAUPHIN        SUNNY     50  46  87 SW10      30.28R
ISLAND LAKE    PTSUNNY   46  43  87 W8        30.25R
PILOT MOUND      N/A     45  43  93 S1          N/A
THE PAS        MOSUNNY   52  46  82 NW9       30.30R
THOMPSON       MOSUNNY   50  43  76 W8        30.20R
WINNIPEG       MOSUNNY   50  46  87 CALM      30.30R
LYNN LAKE      SUNNY     48  39  71 W13       30.18R
CHURCHILL      MOSUNNY   50  45  81 W15       29.96S
GILLAM         MOSUNNY   48  45  87 W14       30.14R
$$
                ***SASKATCHEWAN***

CITY           SKY/WX    TMP DP  RH WIND       PRES   REMARKS
ESTEVAN        MOSUNNY   48  41  76 CALM      30.25R
KINDERSLEY     PTSUNNY   41  36  81 N5        30.37S
LLOYDMINSTER   PTSUNNY   45  36  70 W5        30.36S
PRINCE ALBERT  MOSUNNY   43  43 100 W3        30.36R
REGINA         MOSUNNY   50  45  81 N10       30.30R
YORKTON        SUNNY     46  41  81 N6        30.29R
N. BATTLEFORD  SUNNY     43  36  75 VRB2      30.40R
LA RONGE       SUNNY     46  39  76 W7        30.33R
SASKATOON      MOSUNNY   41  41 100 NW3       30.39R
SWIFT CURRENT  PTSUNNY   46  41  81 NE9       30.34R
$$
NOTE: THESE ARE AUTOMATED STATIONS WITH LIMITED QUALITY CONTROL
      "FAIR" INDICATES FEW OR NO CLOUDS BELOW 12,000 FEET WITH NO
      SIGNIFICANT WEATHER AND/OR OBSTRUCTIONS TO VISIBILITY.
      SKY/WX - SKY CONDITION AND SIGNIFICANT WEATHER.
      TMP - AIR TEMPERATURE.    DP   - DEWPOINT TEMPERATURE.
      RH  - RELATIVE HUMIDITY.  PRES - PRESSURE.
      HX  - HEAT INDEX.         WCI  - WIND CHILL INDEX.
$




USA.gov is the U.S. government's official web portal to all federal, state and local government web resources and services.